Evanston, WY

1:29 PM MST on January 19, 2018 (GMT -0700)
Evanston-Uinta County Burns

Weather History for KEVW - September, 2013

Change the Weather History Date:

Saturday, September 28, 2013

  Actual Average Record
Temperature  
Mean Temperature 41 °F 51 °F  
Max Temperature 55 °F 64 °F 84 °F (2010)
Min Temperature 27 °F 38 °F 19 °F (1999)
Degree Days  
Heating Degree Days 24 14  
Month to date heating degree days 243 265  
Since 1 July heating degree days 257 368  
Cooling Degree Days 0 0  
Month to date cooling degree days 26 0  
Year to date cooling degree days 348 157  
Moisture  
Dew Point 27 °F    
Average Humidity 68    
Maximum Humidity 100    
Minimum Humidity 35    
Precipitation  
Precipitation 0.00 in 0.04 in 0.74 in (2014)
Month to date precipitation 1.48 1.22  
Year to date precipitation 4.06 9.25  
Sea Level Pressure  
Sea Level Pressure 30.19 in    
Wind  
Wind Speed 11 mph (SW)    
Max Wind Speed 16 mph    
Max Gust Speed 24 mph    
Visibility 10 miles    
Events      
T = Trace of Precipitation, MM = Missing Value Source: NWS Daily Summary

Daily Weather History Graph

Daily Weather History Graph

Search for Another Location

Airport or City:

Trip Planner

Search our weather history database for the weather conditions in past years. The results will help you decide how hot, cold, wet, or windy it might be!

Date:

Astronomy

Sep. 28, 2013 Rise Set
Actual Time 7:18 AM MDT 7:10 PM MDT
Civil Twilight 6:50 AM MDT 7:37 PM MDT
Nautical Twilight 6:18 AM MDT 8:10 PM MDT
Astronomical Twilight 5:45 AM MDT 8:42 PM MDT
Moon 1:05 AM MDT (9/28) 3:34 PM MDT (9/28)
Length of Visible Light 12h 47m
Length of Day
11h 52m
Waning Crescent, 35% of the Moon is Illuminated
Sep 28
Waning Crescent
Oct 4
New
Oct 11
First Quarter
Oct 18
Full
Oct 26
Last Quarter

Hourly Weather History & Observations

Time (MDT) Temp. Windchill Dew Point Humidity Pressure Visibility Wind Dir Wind Speed Gust Speed Precip Events Conditions
12:53 AM 30.0 °F 21.7 °F 28.0 °F 92% 30.18 in 10.0 mi SW 9.2 mph - N/A   Clear
1:53 AM 30.0 °F 21.1 °F 28.0 °F 92% 30.18 in 10.0 mi WSW 10.4 mph - N/A   Clear
2:53 AM 28.9 °F 20.4 °F 27.0 °F 92% 30.20 in 10.0 mi SW 9.2 mph - N/A   Clear
3:53 AM 28.9 °F 20.4 °F 26.1 °F 89% 30.20 in 10.0 mi SW 9.2 mph - N/A   Clear
4:53 AM 28.0 °F 18.6 °F 25.0 °F 88% 30.20 in 10.0 mi SW 10.4 mph - N/A   Clear
5:53 AM 28.0 °F 19.3 °F 25.0 °F 88% 30.21 in 10.0 mi SW 9.2 mph - N/A   Clear
6:53 AM 28.0 °F 19.3 °F 25.0 °F 88% 30.25 in 10.0 mi SW 9.2 mph - N/A   Clear
7:53 AM 28.9 °F 21.1 °F 25.0 °F 85% 30.27 in 10.0 mi SW 8.1 mph - N/A   Clear
8:53 AM 32.0 °F 23.0 °F 28.0 °F 85% 30.26 in 10.0 mi WSW 11.5 mph - N/A   Clear
9:53 AM 37.0 °F 28.5 °F 27.0 °F 67% 30.26 in 10.0 mi SW 13.8 mph - N/A   Clear
10:53 AM 42.1 °F 35.2 °F 28.0 °F 58% 30.25 in 10.0 mi SW 12.7 mph - N/A   Clear
11:53 AM 46.0 °F 39.9 °F 28.0 °F 50% 30.22 in 10.0 mi SW 13.8 mph 21.9 mph N/A   Clear
12:53 PM 48.0 °F - 28.0 °F 46% 30.21 in 10.0 mi WSW 11.5 mph 21.9 mph N/A   Clear
1:53 PM 51.1 °F - 30.0 °F 44% 30.17 in 10.0 mi WSW 15.0 mph 20.7 mph N/A   Clear
2:53 PM 52.0 °F - 30.0 °F 43% 30.15 in 10.0 mi WSW 16.1 mph 24.2 mph N/A   Clear
3:53 PM 55.0 °F - 30.0 °F 38% 30.14 in 10.0 mi SW 15.0 mph 21.9 mph N/A   Clear
4:53 PM 55.0 °F - 28.0 °F 35% 30.13 in 10.0 mi SW 16.1 mph 24.2 mph N/A   Clear
5:53 PM 54.0 °F - 27.0 °F 35% 30.15 in 10.0 mi WSW 15.0 mph 20.7 mph N/A   Clear
6:53 PM 48.9 °F - 26.1 °F 41% 30.16 in 10.0 mi West 11.5 mph - N/A   Clear
7:53 PM 45.0 °F 40.1 °F 25.0 °F 46% 30.18 in 10.0 mi West 9.2 mph - N/A   Clear
8:53 PM 41.0 °F 35.8 °F 25.0 °F 53% 30.18 in 10.0 mi WSW 8.1 mph - N/A   Clear
9:53 PM 41.0 °F 34.3 °F 24.1 °F 51% 30.16 in 10.0 mi SW 11.5 mph - N/A   Clear
10:53 PM 42.1 °F 36.1 °F 23.0 °F 47% 30.13 in 10.0 mi SW 10.4 mph - N/A   Clear
11:53 PM 39.9 °F 33.4 °F 23.0 °F 51% 30.12 in 10.0 mi SW 10.4 mph - N/A   Clear